| time (UTC) | temp C | wind direction | speed KPH | gust KPH | rain 1hr cm | rain 24hr cm | rain mn cm | humidity % | barometer mb |
| 20260502224505 | 17 | 9 | 11.3 | 25.7 | 0.00 | 0.00 | 0.00 | 63 | 1018.7 |
| 20260502223007 | 17 | 43 | 16.1 | 25.7 | 0.00 | 0.00 | 0.00 | 64 | 1018.7 |
| 20260502221501 | 17 | 73 | 14.5 | 24.1 | 0.00 | 0.00 | 0.00 | 64 | 1018.9 |
| 20260502220105 | 17 | 29 | 14.5 | 22.5 | 0.00 | 0.00 | 0.00 | 64 | 1019.0 |
| 20260502214614 | 17 | 42 | 11.3 | 22.5 | 0.00 | 0.00 | 0.00 | 64 | 1019.2 |
| 20260502213119 | 17 | 26 | 11.3 | 22.5 | 0.00 | 0.00 | 0.00 | 64 | 1019.3 |
| 20260502211531 | 17 | 27 | 9.7 | 19.3 | 0.00 | 0.00 | 0.00 | 64 | 1019.3 |
| 20260502210023 | 17 | 30 | 11.3 | 19.3 | 0.00 | 0.00 | 0.00 | 64 | 1019.3 |
| 20260502204534 | 17 | 37 | 11.3 | 20.9 | 0.00 | 0.00 | 0.00 | 63 | 1019.2 |
| 20260502203024 | 17 | 46 | 11.3 | 22.5 | 0.00 | 0.00 | 0.00 | 63 | 1019.1 |
| 20260502201519 | 17 | 45 | 16.1 | 25.7 | 0.00 | 0.00 | 0.00 | 64 | 1019.0 |
| 20260502200019 | 18 | 47 | 17.7 | 27.4 | 0.00 | 0.00 | 0.00 | 64 | 1018.9 |
| 20260502194551 | 17 | 60 | 17.7 | 27.4 | 0.00 | 0.00 | 0.00 | 64 | 1018.8 |
| 20260502193047 | 18 | 60 | 12.9 | 27.4 | 0.00 | 0.00 | 0.00 | 64 | 1018.8 |
| 20260502191546 | 18 | 42 | 17.7 | 24.1 | 0.00 | 0.00 | 0.00 | 65 | 1018.7 |
| 20260502190041 | 18 | 65 | 17.7 | 29.0 | 0.00 | 0.00 | 0.00 | 65 | 1018.7 |
| 20260502184538 | 18 | 65 | 16.1 | 25.7 | 0.00 | 0.00 | 0.00 | 65 | 1018.6 |
| 20260502183038 | 18 | 38 | 17.7 | 27.4 | 0.00 | 0.00 | 0.00 | 65 | 1018.6 |
| 20260502181534 | 18 | 46 | 17.7 | 25.7 | 0.00 | 0.00 | 0.00 | 65 | 1018.7 |
| 20260502163038 | 18 | 33 | 19.3 | 25.7 | 0.00 | 0.00 | 0.00 | 64 | 1019.5 |
| 20260502161527 | 18 | 50 | 16.1 | 29.0 | 0.00 | 0.00 | 0.00 | 64 | 1019.4 |
| 20260502151506 | 18 | 62 | 14.5 | 25.7 | 0.00 | 0.00 | 0.00 | 64 | 1020.0 |
| 20260502123114 | 18 | 71 | 12.9 | 20.9 | 0.00 | 0.00 | 0.00 | 63 | 1021.9 |
| 20260502121501 | 18 | 77 | 19.3 | 27.4 | 0.00 | 0.00 | 0.00 | 62 | 1021.7 |
| 20260502120119 | 19 | 60 | 16.1 | 22.5 | 0.00 | 0.00 | 0.00 | 63 | 1021.8 |
| 20260502114603 | 19 | 77 | 16.1 | 24.1 | 0.00 | 0.00 | 0.00 | 62 | 1022.1 |
| 20260502113103 | 19 | 41 | 9.7 | 24.1 | 0.00 | 0.00 | 0.00 | 63 | 1022.5 |
| 20260502111551 | 18 | 56 | 12.9 | 25.7 | 0.00 | 0.00 | 0.00 | 63 | 1022.5 |
| 20260502110051 | 18 | 56 | 17.7 | 24.1 | 0.00 | 0.00 | 0.00 | 63 | 1022.5 |
| 20260502104549 | 18 | 73 | 17.7 | 27.4 | 0.00 | 0.00 | 0.00 | 63 | 1022.5 |
| 20260502103047 | 18 | 73 | 17.7 | 25.7 | 0.00 | 0.00 | 0.00 | 64 | 1022.6 |
| 20260502101545 | 18 | 47 | 17.7 | 25.7 | 0.00 | 0.00 | 0.00 | 64 | 1023.0 |
| 20260502091512 | 18 | 47 | 12.9 | 22.5 | 0.00 | 0.00 | 0.00 | 64 | 1023.2 |
| 20260502070112 | 18 | 37 | 14.5 | 25.7 | 0.00 | 0.00 | 0.00 | 61 | 1023.0 |
| 20260502064555 | 18 | 29 | 19.3 | 25.7 | 0.00 | 0.00 | 0.00 | 60 | 1023.1 |
| 20260502063024 | 18 | 45 | 16.1 | 25.7 | 0.00 | 0.00 | 0.00 | 61 | 1023.2 |
| 20260502061524 | 18 | 41 | 14.5 | 25.7 | 0.00 | 0.00 | 0.00 | 61 | 1022.9 |
| 20260502060022 | 18 | 43 | 11.3 | 19.3 | 0.00 | 0.00 | 0.00 | 61 | 1022.9 |
| 20260502054520 | 18 | 58 | 8.0 | 17.7 | 0.00 | 0.00 | 0.00 | 61 | 1022.8 |
| 20260502053021 | 18 | 29 | 6.4 | 19.3 | 0.00 | 0.00 | 0.00 | 61 | 1022.8 |
| 20260502051528 | 18 | 43 | 11.3 | 17.7 | 0.00 | 0.00 | 0.00 | 61 | 1022.7 |
| 20260502050017 | 18 | 35 | 12.9 | 19.3 | 0.00 | 0.00 | 0.00 | 61 | 1022.7 |
| 20260502044516 | 18 | 65 | 8.0 | 17.7 | 0.00 | 0.00 | 0.00 | 61 | 1022.7 |
| 20260502043014 | 18 | 28 | 11.3 | 16.1 | 0.00 | 0.00 | 0.00 | 61 | 1022.9 |
| 20260502041514 | 18 | 40 | 11.3 | 17.7 | 0.00 | 0.00 | 0.00 | 60 | 1022.9 |
| 20260502040011 | 18 | 36 | 9.7 | 19.3 | 0.00 | 0.00 | 0.00 | 60 | 1023.0 |
| 20260502034510 | 18 | 39 | 12.9 | 19.3 | 0.00 | 0.00 | 0.00 | 60 | 1023.1 |
| 20260502033009 | 18 | 45 | 14.5 | 22.5 | 0.00 | 0.00 | 0.00 | 61 | 1023.0 |
| 20260502031508 | 18 | 49 | 12.9 | 19.3 | 0.00 | 0.00 | 0.00 | 61 | 1023.1 |
| 20260502030004 | 18 | 66 | 12.9 | 19.3 | 0.00 | 0.00 | 0.00 | 61 | 1023.0 |
| 20260502024502 | 18 | 56 | 12.9 | 22.5 | 0.00 | 0.00 | 0.00 | 61 | 1023.1 |
| 20260502023100 | 18 | 77 | 12.9 | 19.3 | 0.00 | 0.00 | 0.00 | 61 | 1023.1 |
| 20260502021557 | 18 | 62 | 11.3 | 20.9 | 0.00 | 0.00 | 0.00 | 61 | 1022.9 |
| 20260502020056 | 18 | 58 | 14.5 | 24.1 | 0.00 | 0.00 | 0.00 | 61 | 1023.3 |
| 20260502014550 | 18 | 9 | 12.9 | 24.1 | 0.00 | 0.00 | 0.00 | 61 | 1023.2 |
| 20260502013047 | 18 | 77 | 17.7 | 27.4 | 0.00 | 0.00 | 0.00 | 61 | 1023.4 |
| 20260502011547 | 18 | 75 | 14.5 | 27.4 | 0.00 | 0.00 | 0.00 | 61 | 1023.4 |
| 20260502010043 | 18 | 73 | 9.7 | 25.7 | 0.00 | 0.00 | 0.00 | 61 | 1023.4 |
| 20260502004540 | 18 | 46 | 16.1 | 24.1 | 0.00 | 0.00 | 0.00 | 61 | 1023.7 |
| 20260502003037 | 18 | 69 | 12.9 | 24.1 | 0.00 | 0.00 | 0.00 | 61 | 1024.1 |
| 20260502001544 | 18 | 70 | 16.1 | 24.1 | 0.00 | 0.00 | 0.00 | 61 | 1024.2 |
| 20260502000114 | 18 | 40 | 11.3 | 20.9 | 0.00 | 0.00 | 0.00 | 61 | 1024.5 |
| 20260501234601 | 18 | 58 | 4.8 | 19.3 | 0.00 | 0.00 | 0.00 | 61 | 1024.6 |
| 20260501233100 | 18 | 41 | 11.3 | 17.7 | 0.00 | 0.00 | 0.00 | 61 | 1024.7 |
| 20260501231557 | 18 | 56 | 11.3 | 19.3 | 0.00 | 0.00 | 0.00 | 61 | 1024.7 |
| 20260501230101 | 18 | 51 | 8.0 | 19.3 | 0.00 | 0.00 | 0.00 | 61 | 1024.7 |